• In Uzbekistan
  • List of Countries
  • For 7 days
  • Water Temperature
  • Weather Map
  • Weather Widgets
  • user-avatar
    Login

    Hourly Weather Pabna

    Today, 3 April, Friday

    Time Temperature Precipitation Wind Pressure Humidity
    00:00 +32°C° 0 mm 4 mps 752 mmHg 50%
    01:00 +30°C° 0 mm 3 mps 752 mmHg 56%
    02:00 +29°C° 0 mm 3 mps 752 mmHg 62%
    03:00 +29°C° 0 mm 3 mps 752 mmHg 69%
    04:00 +28°C° 0 mm 3 mps 752 mmHg 72%
    05:00 +27°C° 0 mm 2 mps 753 mmHg 76%
    06:00 +27°C° 0 mm 2 mps 753 mmHg 80%
    07:00 +29°C° 0 mm 2 mps 754 mmHg 69%
    08:00 +31°C° 0 mm 2 mps 754 mmHg 57%
    09:00 +35°C° 0 mm 2 mps 755 mmHg 46%
    10:00 +36°C° 0 mm 1 mps 755 mmHg 36%
    11:00 +39°C° 0 mm 1 mps 754 mmHg 26%
    12:00 +41°C° 0 mm 1 mps 754 mmHg 16%
    13:00 +42°C° 0 mm 3 mps 753 mmHg 14%
    14:00 +43°C° 0 mm 4 mps 752 mmHg 11%
    15:00 +45°C° 0 mm 6 mps 751 mmHg 9%
    16:00 +42°C° 0 mm 5 mps 751 mmHg 10%
    17:00 +41°C° 0 mm 4 mps 751 mmHg 10%
    18:00 +38°C° 0 mm 3 mps 751 mmHg 11%
    19:00 +37°C° 0 mm 3 mps 751 mmHg 11%
    20:00 +35°C° 0 mm 3 mps 752 mmHg 12%
    21:00 +34°C° 0 mm 3 mps 753 mmHg 12%
    22:00 +33°C° 0 mm 3 mps 753 mmHg 13%
    23:00 +31°C° 0 mm 2 mps 753 mmHg 14%

    Tomorrow, 4 April, Saturday

    Time Temperature Precipitation Wind Pressure Humidity
    00:00 +30°C° 0 mm 2 mps 753 mmHg 15%
    01:00 +29°C° 0 mm 2 mps 753 mmHg 16%
    02:00 +28°C° 0 mm 2 mps 753 mmHg 16%
    03:00 +28°C° 0 mm 2 mps 753 mmHg 17%
    04:00 +27°C° 0 mm 2 mps 754 mmHg 17%
    05:00 +27°C° 0 mm 2 mps 754 mmHg 17%
    06:00 +26°C° 0 mm 1 mps 754 mmHg 17%
    07:00 +29°C° 0 mm 2 mps 755 mmHg 15%
    08:00 +32°C° 0 mm 2 mps 755 mmHg 13%
    09:00 +36°C° 0 mm 2 mps 756 mmHg 11%
    10:00 +37°C° 0 mm 2 mps 756 mmHg 10%
    11:00 +39°C° 0 mm 2 mps 755 mmHg 8%
    12:00 +41°C° 0 mm 2 mps 755 mmHg 7%
    13:00 +42°C° 0 mm 4 mps 754 mmHg 7%
    14:00 +43°C° 0 mm 5 mps 753 mmHg 7%
    15:00 +44°C° 0 mm 7 mps 752 mmHg 7%
    16:00 +42°C° 0 mm 5 mps 752 mmHg 8%
    17:00 +41°C° 0 mm 4 mps 751 mmHg 9%
    18:00 +38°C° 0 mm 3 mps 751 mmHg 11%
    19:00 +36°C° 0 mm 2 mps 752 mmHg 12%
    20:00 +35°C° 0 mm 2 mps 752 mmHg 13%
    21:00 +32°C° 0 mm 2 mps 753 mmHg 13%
    22:00 +31°C° 0 mm 2 mps 753 mmHg 24%
    23:00 +30°C° 0 mm 3 mps 753 mmHg 35%

    Day after tomorrow, 5 April, Sunday

    Time Temperature Precipitation Wind Pressure Humidity
    00:00 +29°C° 0 mm 4 mps 753 mmHg 46%
    01:00 +28°C° 0 mm 4 mps 753 mmHg 53%
    02:00 +28°C° 0 mm 3 mps 753 mmHg 60%
    03:00 +27°C° 0 mm 3 mps 753 mmHg 67%
    04:00 +26°C° 0 mm 3 mps 753 mmHg 69%
    05:00 +26°C° 0 mm 3 mps 754 mmHg 71%
    06:00 +26°C° 0 mm 2 mps 754 mmHg 73%
    07:00 +29°C° 0 mm 2 mps 754 mmHg 58%
    08:00 +32°C° 0 mm 2 mps 755 mmHg 42%
    09:00 +35°C° 0 mm 1 mps 756 mmHg 27%
    10:00 +38°C° 0 mm 2 mps 755 mmHg 21%
    11:00 +40°C° 0 mm 2 mps 755 mmHg 14%
    12:00 +42°C° 0 mm 2 mps 755 mmHg 8%
    13:00 +43°C° 0 mm 4 mps 753 mmHg 7%
    14:00 +45°C° 0 mm 5 mps 752 mmHg 7%
    15:00 +46°C° 0 mm 7 mps 751 mmHg 6%
    16:00 +44°C° 0 mm 6 mps 751 mmHg 7%
    17:00 +42°C° 0 mm 5 mps 751 mmHg 8%
    18:00 +40°C° 0 mm 4 mps 750 mmHg 9%
    19:00 +37°C° 0 mm 3 mps 751 mmHg 10%
    20:00 +35°C° 0 mm 3 mps 752 mmHg 11%
    21:00 +32°C° 0 mm 2 mps 752 mmHg 11%
    22:00 +31°C° 0 mm 3 mps 752 mmHg 19%
    23:00 +30°C° 0 mm 3 mps 752 mmHg 27%

    6 April, Monday

    Time Temperature Precipitation Wind Pressure Humidity
    00:00 +29°C° 0 mm 4 mps 753 mmHg 35%
    01:00 +28°C° 0 mm 3 mps 752 mmHg 48%
    02:00 +28°C° 0 mm 3 mps 752 mmHg 61%
    03:00 +27°C° 0 mm 3 mps 752 mmHg 74%
    04:00 +26°C° 0 mm 3 mps 752 mmHg 75%
    05:00 +26°C° 0 mm 3 mps 752 mmHg 75%
    06:00 +26°C° 0 mm 3 mps 752 mmHg 76%
    07:00 +29°C° 0 mm 3 mps 753 mmHg 57%
    08:00 +34°C° 0 mm 4 mps 754 mmHg 39%
    09:00 +38°C° 0 mm 4 mps 754 mmHg 20%
    10:00 +41°C° 0 mm 5 mps 754 mmHg 16%
    11:00 +43°C° 0 mm 5 mps 753 mmHg 12%
    12:00 +46°C° 0 mm 6 mps 753 mmHg 7%
    13:00 +46°C° 0 mm 6 mps 752 mmHg 7%
    14:00 +46°C° 0 mm 6 mps 751 mmHg 7%
    15:00 +46°C° 0 mm 7 mps 750 mmHg 7%
    16:00 +45°C° 0 mm 6 mps 749 mmHg 8%
    17:00 +42°C° 0 mm 4 mps 749 mmHg 9%
    18:00 +40°C° 0 mm 3 mps 748 mmHg 10%
    19:00 +38°C° 0 mm 3 mps 749 mmHg 10%
    20:00 +37°C° 0 mm 3 mps 750 mmHg 11%
    21:00 +36°C° 0 mm 3 mps 751 mmHg 11%
    22:00 +34°C° 0 mm 4 mps 750 mmHg 16%
    23:00 +33°C° 0 mm 4 mps 750 mmHg 21%

    7 April, Tuesday

    Time Temperature Precipitation Wind Pressure Humidity
    00:00 +32°C° 0 mm 5 mps 750 mmHg 25%
    01:00 +30°C° 0 mm 5 mps 750 mmHg 36%
    02:00 +29°C° 0 mm 4 mps 750 mmHg 47%
    03:00 +28°C° 0 mm 4 mps 750 mmHg 58%
    04:00 +28°C° 0 mm 4 mps 750 mmHg 60%
    05:00 +28°C° 0 mm 4 mps 750 mmHg 63%
    06:00 +27°C° 0 mm 4 mps 750 mmHg 66%
    07:00 +30°C° 0 mm 3 mps 751 mmHg 53%
    08:00 +34°C° 0 mm 2 mps 752 mmHg 41%
    09:00 +36°C° 0 mm 1 mps 752 mmHg 28%
    10:00 +40°C° 0 mm 1 mps 752 mmHg 22%
    11:00 +42°C° 0 mm 1 mps 752 mmHg 16%
    12:00 +44°C° 0 mm 1 mps 751 mmHg 10%
    13:00 +46°C° 0 mm 2 mps 750 mmHg 9%
    14:00 +46°C° 0 mm 2 mps 749 mmHg 8%
    15:00 +46°C° 0 mm 3 mps 748 mmHg 8%
    16:00 +45°C° 0 mm 3 mps 748 mmHg 10%
    17:00 +43°C° 0 mm 3 mps 748 mmHg 12%
    18:00 +42°C° 0 mm 3 mps 748 mmHg 14%
    19:00 +40°C° 0 mm 4 mps 748 mmHg 18%
    20:00 +38°C° 0 mm 4 mps 749 mmHg 23%
    21:00 +36°C° 0 mm 5 mps 750 mmHg 27%
    22:00 +35°C° 0 mm 4 mps 750 mmHg 32%
    23:00 +33°C° 0 mm 3 mps 750 mmHg 37%

    8 April, Wednesday

    Time Temperature Precipitation Wind Pressure Humidity
    00:00 +31°C° 0 mm 3 mps 750 mmHg 42%
    01:00 +30°C° 0 mm 2 mps 750 mmHg 48%
    02:00 +30°C° 0 mm 2 mps 750 mmHg 54%
    03:00 +29°C° 0 mm 2 mps 750 mmHg 60%
    04:00 +28°C° 0 mm 3 mps 750 mmHg 67%
    05:00 +28°C° 0 mm 3 mps 750 mmHg 73%
    06:00 +28°C° 0 mm 4 mps 751 mmHg 79%
    07:00 +30°C° 0 mm 4 mps 751 mmHg 68%
    08:00 +33°C° 0 mm 5 mps 752 mmHg 58%
    09:00 +36°C° 0 mm 5 mps 752 mmHg 47%
    10:00 +39°C° 0 mm 5 mps 752 mmHg 39%
    11:00 +41°C° 0 mm 4 mps 752 mmHg 31%
    12:00 +44°C° 0 mm 4 mps 751 mmHg 23%
    13:00 +44°C° 0 mm 3 mps 750 mmHg 20%
    14:00 +45°C° 0 mm 3 mps 749 mmHg 17%
    15:00 +45°C° 0 mm 2 mps 747 mmHg 13%
    16:00 +40°C° 0.5 mm 5 mps 748 mmHg 27%
    17:00 +34°C° 0.5 mm 9 mps 748 mmHg 41%
    18:00 +28°C° 0.5 mm 12 mps 749 mmHg 55%
    19:00 +28°C° 0 mm 10 mps 750 mmHg 53%
    20:00 +28°C° 0 mm 7 mps 750 mmHg 51%
    21:00 +28°C° 0 mm 5 mps 751 mmHg 50%
    22:00 +28°C° 0 mm 5 mps 751 mmHg 55%
    23:00 +28°C° 0 mm 4 mps 752 mmHg 61%
    Show more